Probability
0 0 0 0 0 0 0 0 0 0 0 0 0 0 0 0 0 0 0 0 0 0 0 0 0 0 0 0 0 0 0 0 0 0 0 0 0 0 0 0 0 0 0
0 0 0 0 0 0 0 0 0 0 0 0 0 0 0 0 0 0 0 0 0 0 0 0 0 0 0 0 0 0 0 0 0 0 0 0 0 0 0 0 0 0 0
0 0 0 0 0 0 0 0 0 0 0 0 0 0 0 0 0 0 0 0 0 0 0 0 0 0 0 0 0 0 0 0 0 0 0 0 0 0 0 0 0 0 0
0 0 0 0 0 0 0 0 0 0 0 0 0 0 0 0 0 0 0 0 0 0 0 0 0 0 0 0 0 0 0 0 0 0 0 0 0 0 0 0 0 0 0
0 0 0 0 0 0 0 0 0 0 0 0 0 0 0 0 0 0 0 0 0 0 0 0 0 0 0 0 0 0 0 0 0 0 0 0 0 0 0 0 0 0 0
0 0 0 0 0 0 0 0 0 0 0 0 0 0 0 0 0 0 0 0 0 0 0 0 0 0 0 0 0 0 0 0 0 0 0 0 0 0 0 0 0 0 0
0 0 0 0 0 0 0 0 0 0 0 0 0 0 0 0 0 0 0 0 0 0 0 0 0 0 0 0 0 0 0 0 0 0 0 0 0 0 0 0 0 0 0
0 0 0 0 0 0 0 0 0 0 0 0 0 0 0 0 0 0 0 0 0 0 0 0 0 0 0 0 0 0 0 0 0 0 0 0 0 0 0 0 0 0 0
0 0 0 0 0 0 0 0 0 0 0 0 0 0 0 0 0 0 0 0 0 0 0 0 0 0 0 0 0 0 0 0 0 0 0 0 0 0 0 0 0 0 0
0 0 0 0 0 0 0 0 0 0 0 0 0 0 0 0 0 0 0 0 0 0 0 0 0 0 0 0 0 0 0 0 0 0 0 0 0 0 0 0 0 0 0
0 0 0 0 0 0 0 0 0 0 0 0 0 0 0 0 0 0 0 0 0 0 0 0 0 0 0 0 0 0 0 0 0 0 0 0 0 0 0 0 0 0 0
0 0 0 0 0 0 0 0 0 0 0 0 0 0 0 0 0 0 0 0 0 0 0 0 0 0 0 0 0 0 0 0 0 0 0 0 0 0 0 0 0 0 0
0 0 0 0 0 0 0 0 0 0 0 0 0 0 0 0 0 0 0 0 0 0 0 0 0 0 0 0 0 0 0 0 0 0 0 0 0 0 0 0 0 0 0
0 0 0 0 0 0 0 0 0 0 0 0 0 0 0 0 0 0 0 0 0 0 0 0 0 0 0 0 0 0 0 0 0 0 0 0 0 0 0 0 0 0 0
0 0 0 0 0 0 0 0 0 0 0 0 0 0 0 0 0 0 0 0 0 0 0 0 0 0 0 0 0 0 0 0 0 0 0 0 0 0 0 0 0 0 0
0 0 0 0 0 0 0 0 0 0 0 0 0 0 0 0 0 0 0 0 0 0 0 0 0 0 0 0 0 0 0 0 0 0 0 0 0 0 0 0 0 0 0
0 0 0 0 0 0 0 0 0 0 0 0 0 0 0 0 0 0 0 0 0 0 0 0 0 0 0 0 0 0 0 0 0 0 0 0 0 0 0 0 0 0 0
0 0 0 0 0 0 0 0 0 0 0 0 0 0 0 0 0 0 0 0 0 0 0 0 0 0 0 0 0 0 0 0 0 0 0 0 0 0 0 0 0 0 0
0 0 0 0 0 0 0 0 0 0 0 0 0 0 0 0 0 0 0 0 0 0 0 0 0 0 0 0 0 0 0 0 0 0 0 0 0 0 0 0 0 0 0
0 0 0 0 0 0 0 0 0 0 0 0 0 0 0 0 0 0 0 0 0 0 0 0 0 0 0 0 0 0 0 0 0 0 0 0 0 0 0 0 0 0 0
0 0 0 0 0 0 0 0 0 0 0 0 0 0 0 0 0 0 0 0 0 0 0 0 0 0 0 0 0 0 0 0 0 0 0 0 0 0 0 0 0 0 0
0 0 0 0 0 0 0 0 0 0 0 0 0 0 0 0 0 0 0 0 0 0 0 0 0 0 0 0 0 0 0 0 0 0 0 0 0 0 0 0 0 0 0
0 0 0 0 0 0 0 0 0 0 0 0 0 0 0 0 0 0 0 0 0 0 0 0 0 0 0 0 0 0 0 0 0 0 0 0 0 0 0 0 0 0 0
0 0 0 0 0 0 0 0 0 0 0 0 0 0 0 0 0 0 0 0 0 0 0 0 0 0 0 0 0 0 0 0 0 0 0 0 0 0 0 0 0 0 0
0 0 0 0 0 0 0 0 0 0 0 0 0 0 0 0 0 0 0 0 0 0 0 0 0 0 0 0 0 0 0 0 0 0 0 0 0 0 0 0 0 0 0
0 0 0 0 0 0 0 0 0 0 0 0 0 0 0 0 0 0 0 0 0 0 0 0 0 0 0 0 0 0 0 0 0 0 0 0 0 0 0 0 0 0 0
Height
5830 5829 5827 5826 5824 5822 5820 5818 5816 5813 5811 5808 5805 5803 5800 5797 5794 5792 5789 5786 5783 5781 5779 5778 5776 5775 5774 5774 5773 5773 5772 5772 5772 5773 5773 5774 5776 5777 5778 5780 5782 5784 5786
5824 5822 5821 5819 5817 5815 5812 5810 5807 5805 5802 5799 5796 5793 5790 5787 5784 5781 5778 5775 5772 5769 5767 5765 5764 5762 5761 5760 5759 5759 5758 5758 5757 5757 5758 5759 5760 5761 5763 5764 5766 5768 5771
5817 5815 5813 5811 5808 5806 5803 5801 5798 5795 5792 5789 5786 5783 5779 5776 5772 5769 5766 5763 5760 5757 5754 5752 5750 5748 5747 5745 5744 5743 5742 5742 5741 5741 5741 5742 5743 5744 5745 5747 5749 5751 5754
5809 5807 5805 5802 5800 5797 5794 5791 5788 5784 5781 5778 5774 5771 5767 5764 5760 5756 5752 5749 5746 5743 5740 5737 5735 5733 5731 5730 5728 5727 5725 5724 5724 5723 5723 5723 5724 5725 5726 5728 5730 5732 5735
5799 5797 5795 5793 5790 5787 5783 5780 5776 5773 5770 5766 5762 5759 5755 5751 5747 5743 5738 5734 5731 5728 5725 5722 5719 5717 5715 5713 5711 5709 5708 5706 5705 5704 5704 5704 5704 5705 5706 5707 5709 5711 5713
5789 5787 5785 5782 5779 5776 5772 5768 5764 5760 5756 5753 5750 5746 5742 5737 5733 5728 5724 5719 5716 5712 5709 5706 5703 5701 5698 5696 5694 5692 5690 5688 5686 5685 5684 5684 5684 5684 5685 5686 5687 5689 5691
5779 5775 5773 5770 5767 5764 5760 5755 5751 5747 5743 5738 5735 5731 5728 5723 5719 5714 5709 5704 5700 5696 5693 5689 5687 5684 5681 5679 5676 5674 5671 5669 5667 5666 5664 5663 5663 5662 5662 5663 5664 5665 5667
5768 5765 5761 5758 5754 5750 5747 5742 5737 5733 5729 5724 5720 5715 5712 5709 5705 5700 5695 5690 5685 5681 5677 5673 5670 5667 5664 5661 5658 5655 5652 5650 5648 5646 5644 5642 5641 5640 5640 5640 5640 5641 5642
5757 5753 5749 5744 5740 5736 5733 5728 5723 5719 5714 5710 5705 5700 5695 5691 5688 5686 5682 5677 5671 5666 5662 5657 5653 5650 5646 5643 5640 5637 5634 5631 5628 5625 5623 5621 5619 5617 5616 5615 5615 5615 5615
5744 5740 5736 5731 5726 5722 5718 5713 5709 5704 5699 5694 5690 5686 5680 5675 5670 5666 5664 5660 5655 5651 5646 5642 5637 5633 5629 5625 5622 5618 5615 5611 5608 5605 5602 5599 5597 5594 5592 5590 5589 5588 5588
5730 5726 5722 5717 5712 5707 5703 5698 5693 5689 5684 5679 5674 5669 5665 5659 5655 5650 5646 5642 5637 5633 5629 5626 5621 5616 5612 5608 5604 5600 5596 5592 5588 5584 5581 5577 5574 5571 5568 5565 5562 5560 5559
5717 5712 5707 5702 5697 5692 5687 5683 5678 5673 5669 5664 5658 5653 5649 5644 5640 5634 5629 5625 5621 5617 5612 5609 5604 5599 5595 5591 5586 5582 5577 5573 5568 5564 5560 5555 5551 5547 5543 5539 5535 5532 5528
5701 5697 5692 5687 5682 5677 5672 5667 5662 5658 5653 5648 5643 5638 5633 5628 5623 5618 5613 5608 5604 5600 5596 5592 5586 5581 5576 5572 5568 5563 5558 5553 5548 5543 5538 5533 5528 5523 5517 5512 5506 5501 5497
5685 5680 5676 5672 5667 5662 5657 5651 5646 5642 5637 5632 5627 5621 5616 5611 5606 5601 5596 5590 5586 5583 5580 5575 5569 5563 5558 5553 5548 5543 5538 5532 5527 5521 5515 5509 5503 5497 5490 5483 5477 5470 5464
5668 5663 5659 5655 5651 5646 5641 5635 5630 5626 5620 5615 5610 5604 5599 5594 5588 5583 5578 5573 5569 5565 5563 5558 5551 5545 5539 5534 5528 5523 5517 5511 5504 5498 5491 5484 5477 5470 5462 5454 5447 5439 5432
5652 5647 5642 5637 5633 5629 5624 5618 5613 5609 5603 5598 5592 5587 5582 5577 5571 5566 5561 5556 5551 5547 5544 5541 5534 5527 5520 5514 5508 5503 5497 5490 5482 5474 5467 5459 5450 5442 5434 5425 5417 5409 5401
5636 5631 5626 5621 5616 5611 5606 5601 5596 5591 5585 5580 5574 5569 5564 5559 5554 5549 5544 5539 5534 5529 5525 5523 5516 5509 5502 5495 5489 5482 5475 5468 5460 5451 5442 5434 5424 5415 5405 5396 5387 5379 5371
5620 5615 5609 5604 5599 5594 5588 5583 5578 5572 5567 5562 5556 5551 5547 5541 5537 5532 5527 5522 5517 5511 5507 5504 5499 5491 5484 5476 5469 5462 5455 5447 5438 5429 5420 5410 5399 5389 5379 5369 5359 5351 5343
5604 5598 5592 5587 5582 5576 5571 5565 5560 5554 5549 5544 5538 5533 5529 5524 5520 5515 5509 5504 5499 5493 5489 5485 5481 5473 5465 5456 5449 5442 5434 5426 5417 5407 5398 5387 5377 5366 5356 5345 5335 5326 5318
5587 5582 5576 5571 5565 5559 5553 5547 5542 5537 5532 5527 5521 5517 5512 5507 5502 5497 5492 5487 5481 5476 5470 5465 5461 5455 5447 5437 5428 5422 5415 5406 5396 5385 5375 5365 5355 5344 5334 5322 5312 5303 5294
5571 5565 5559 5554 5548 5542 5536 5530 5524 5520 5515 5510 5505 5500 5495 5490 5485 5480 5474 5469 5463 5458 5452 5447 5442 5435 5428 5418 5409 5401 5394 5386 5377 5364 5353 5345 5333 5324 5314 5302 5291 5282 5273
5554 5548 5542 5536 5530 5524 5518 5513 5508 5504 5499 5494 5489 5484 5478 5473 5468 5462 5457 5451 5445 5440 5434 5428 5422 5416 5409 5399 5390 5382 5373 5365 5359 5348 5332 5325 5313 5303 5293 5282 5272 5262 5253
5536 5530 5524 5519 5514 5508 5501 5496 5491 5488 5484 5478 5472 5467 5462 5457 5451 5445 5439 5433 5428 5422 5416 5410 5405 5398 5390 5381 5372 5364 5354 5344 5337 5326 5312 5306 5295 5284 5274 5263 5253 5243 5234
5519 5513 5507 5502 5497 5491 5484 5479 5474 5471 5467 5462 5456 5450 5445 5440 5434 5428 5422 5417 5411 5404 5398 5391 5387 5380 5371 5362 5352 5344 5335 5327 5320 5309 5293 5284 5278 5268 5258 5247 5235 5225 5217
5501 5495 5490 5485 5480 5474 5468 5462 5457 5454 5450 5445 5440 5434 5429 5423 5417 5410 5406 5401 5395 5388 5380 5374 5369 5362 5353 5345 5335 5327 5318 5309 5303 5296 5279 5267 5260 5251 5243 5232 5220 5209 5201
5484 5478 5473 5467 5462 5457 5451 5446 5440 5437 5433 5428 5423 5418 5412 5406 5400 5393 5389 5385 5379 5373 5366 5360 5353 5346 5338 5329 5320 5311 5302 5294 5286 5280 5269 5255 5246 5235 5228 5220 5207 5196 5188
Wind_Speed
27 28 29 30 31 32 33 34 35 36 38 39 40 41 42 42 43 43 43 44 45 46 48 50 51 53 54 55 55 56 57 58 58 59 59 60 61 62 62 63 64 64 65
31 32 32 34 35 36 37 38 39 40 41 42 43 44 45 46 47 47 47 47 47 48 49 50 52 53 55 56 57 58 59 59 60 61 62 63 63 64 65 66 67 68 69
35 35 36 37 38 39 41 42 43 44 45 46 47 48 49 50 50 51 51 50 50 50 50 51 52 53 55 56 57 58 60 61 62 63 64 65 66 67 68 69 70 70 71
39 39 40 41 42 43 44 46 47 48 49 50 51 52 53 54 54 55 54 53 53 52 53 53 54 54 55 56 57 59 60 62 63 65 66 67 68 69 70 71 72 73 74
43 44 44 45 46 47 48 50 51 52 53 54 54 55 56 57 57 57 57 56 55 55 55 55 55 55 56 57 58 60 61 62 64 65 66 68 69 70 71 72 73 75 76
47 48 48 49 50 51 52 54 55 56 57 57 58 58 59 59 60 59 59 58 57 57 57 57 57 57 58 59 59 60 62 63 64 66 67 68 69 70 71 72 74 75 77
51 52 52 53 54 55 56 57 59 60 60 61 61 61 61 61 61 60 60 59 59 59 59 59 59 59 59 60 60 61 62 63 64 66 67 68 70 71 72 73 74 75 77
54 55 56 56 57 58 59 60 62 63 63 64 64 64 62 61 60 60 59 59 60 60 60 60 60 60 60 60 61 62 63 64 65 66 68 69 70 71 72 74 75 76 78
55 56 58 59 60 61 61 62 64 65 65 65 64 63 63 62 61 59 58 58 59 59 59 60 60 60 61 61 62 63 64 65 66 67 68 69 70 72 74 75 76 78 80
57 58 59 61 62 63 64 65 65 65 65 65 64 63 62 62 61 61 59 59 59 59 59 60 60 60 61 62 63 64 65 66 67 68 69 70 72 73 75 76 78 80 82
58 59 60 62 63 65 66 66 66 65 64 64 64 62 61 62 61 62 61 60 61 60 60 60 60 60 61 62 63 65 65 66 67 68 69 71 72 74 76 78 80 82 84
58 59 61 63 64 65 66 67 66 65 65 64 64 63 63 63 62 62 62 62 62 61 61 60 61 61 62 63 64 65 66 66 67 68 70 71 73 75 77 80 82 84 87
59 60 62 64 65 66 66 66 66 66 65 65 65 65 65 64 64 64 64 63 63 62 61 61 62 63 64 65 66 66 66 67 68 69 71 72 74 77 79 81 84 86 88
61 62 64 64 65 65 66 67 67 67 67 67 67 66 66 66 66 65 64 64 63 62 62 61 63 64 66 66 66 67 67 68 69 71 72 74 76 78 80 82 84 86 87
63 64 64 64 65 65 66 67 67 67 68 68 67 68 68 67 67 65 65 65 64 63 62 62 64 65 66 67 68 68 69 70 71 72 74 75 77 79 80 82 83 83 84
63 64 65 65 65 66 67 68 69 69 70 69 70 70 69 69 67 65 66 65 65 64 63 62 64 65 67 68 69 70 70 71 72 73 75 76 78 79 80 80 80 80 80
64 65 66 67 67 68 68 69 70 71 71 71 71 71 69 68 66 65 65 65 65 65 65 63 64 65 67 69 70 71 71 71 72 73 74 76 77 78 78 78 77 76 75
64 65 66 67 68 68 69 69 70 70 70 70 70 69 67 65 63 64 64 65 65 66 66 64 64 66 68 69 70 70 71 71 72 72 73 74 75 75 74 74 73 72 70
62 63 65 65 66 67 67 67 68 68 68 67 66 64 63 62 62 63 64 64 65 66 66 65 65 67 68 69 70 70 70 70 71 71 71 71 71 71 70 69 68 67 67
61 61 62 63 64 65 65 65 65 65 64 63 62 61 61 61 61 62 63 63 64 65 65 65 66 66 66 67 69 69 69 69 69 69 69 69 68 68 66 65 65 64 63
60 61 62 62 63 63 63 63 62 62 61 61 60 59 60 60 60 62 62 62 64 64 65 65 65 65 65 66 67 68 68 68 67 66 67 66 67 66 63 61 61 60 60
61 61 61 61 61 60 60 60 60 60 60 59 58 58 58 59 59 61 62 63 64 64 63 64 64 63 64 65 66 67 67 67 65 62 65 64 64 62 60 59 58 57 56
62 61 60 60 59 59 60 60 60 59 58 58 58 58 57 58 59 60 61 62 62 61 61 62 62 62 63 63 65 64 64 64 62 60 63 61 59 58 57 56 55 54 53
61 60 60 59 59 59 59 59 60 59 58 57 57 57 57 57 58 58 59 60 60 59 60 61 61 61 61 61 62 62 62 61 59 57 59 60 56 55 54 53 53 52 50
60 59 58 58 57 57 58 59 59 59 57 56 56 56 56 57 57 58 58 58 57 57 59 59 59 58 58 58 59 59 59 59 56 53 55 57 54 53 51 50 49 49 47
59 58 57 57 57 56 57 57 57 56 56 55 55 55 55 55 56 56 56 55 54 55 56 56 56 56 55 55 55 55 56 56 54 50 50 53 52 52 49 45 45 45 43
Wind_Direction
295 296 297 297 297 298 298 298 298 299 300 300 301 301 301 300 299 296 293 289 285 282 279 277 275 273 272 271 270 270 269 268 268 267 266 265 264 263 262 261 261 261 261
292 293 294 295 296 297 297 298 298 298 299 299 300 300 300 300 299 297 295 291 288 285 282 279 277 275 273 272 270 269 268 268 267 267 266 265 263 262 261 260 260 259 259
289 291 292 294 295 296 297 297 297 298 298 298 299 299 299 299 299 298 296 293 289 286 284 281 279 277 275 273 272 271 270 268 268 267 266 265 264 263 262 261 259 258 257
289 290 292 293 294 295 296 296 297 297 298 298 298 299 299 299 299 299 297 294 291 288 286 283 281 279 277 275 274 273 272 271 270 269 268 267 266 265 264 262 261 259 258
289 290 291 293 294 295 295 296 297 297 297 297 298 298 298 298 298 298 296 294 291 289 287 285 283 281 279 278 276 275 274 273 272 271 271 270 268 267 266 264 263 261 259
288 290 292 293 294 294 294 295 296 296 296 297 297 297 297 297 297 297 296 294 292 290 289 287 285 284 282 280 279 278 277 276 275 274 273 272 271 270 268 267 265 263 261
287 290 292 292 293 294 294 295 295 296 296 296 297 297 296 296 296 295 295 294 292 291 290 288 287 286 285 283 282 281 279 278 277 276 275 274 273 272 270 269 267 265 263
287 289 291 292 292 293 293 294 294 295 295 296 297 296 296 295 294 293 294 293 292 291 290 289 288 287 286 285 284 284 282 281 279 278 277 276 275 274 273 271 269 267 265
287 288 289 290 291 291 292 293 293 294 295 296 296 296 296 295 293 292 292 292 291 290 290 290 289 289 288 287 286 285 284 283 282 281 280 279 277 276 275 274 272 270 268
286 287 288 289 290 290 291 292 293 294 295 296 296 296 296 295 295 294 293 292 291 291 290 290 290 290 289 288 288 287 286 285 284 283 282 281 280 279 277 276 275 273 271
284 286 287 288 289 289 290 291 292 293 295 296 296 296 296 296 296 295 294 294 292 292 291 291 290 290 290 290 289 289 288 287 286 285 284 283 282 281 280 279 278 276 275
284 285 286 287 288 289 290 291 292 293 294 295 296 296 296 297 297 296 294 293 292 292 292 292 291 291 291 291 290 290 289 289 288 287 286 285 284 283 282 281 280 279 278
285 285 285 286 287 288 289 290 291 293 294 295 295 296 296 296 297 296 295 293 292 292 293 292 291 292 292 292 292 292 291 290 290 289 288 287 286 286 285 284 283 282 281
285 285 285 286 286 287 288 289 290 292 293 294 295 295 296 296 296 295 295 293 292 292 293 293 292 292 293 293 293 293 293 292 291 291 290 290 289 289 288 287 286 284 282
285 286 286 286 286 287 287 289 290 291 293 294 294 295 295 296 295 294 294 293 292 293 293 293 293 293 294 295 295 294 295 294 294 293 293 292 292 292 291 290 288 286 284
285 285 285 286 286 287 287 288 289 291 292 293 293 294 294 294 294 293 293 292 292 293 292 293 293 294 295 295 296 296 296 296 295 295 295 295 295 294 293 292 290 288 285
284 284 285 285 286 287 288 289 290 291 291 292 292 292 292 292 292 292 292 292 292 292 292 292 293 295 296 296 296 297 297 297 297 297 297 297 297 296 295 294 292 290 286
286 286 286 286 287 288 289 289 290 290 291 291 291 291 291 291 290 291 291 291 292 292 292 293 294 295 296 296 297 298 298 298 298 299 298 298 298 297 297 296 293 290 287
289 288 288 288 288 289 289 290 290 290 290 291 291 291 290 290 291 291 291 292 292 292 293 293 294 295 296 297 297 298 299 299 299 300 300 299 298 298 298 296 293 290 288
292 291 290 290 290 290 290 290 290 290 290 291 291 291 291 291 291 291 291 292 292 293 294 294 295 296 297 297 297 298 299 300 300 301 300 300 300 300 300 297 294 291 288
293 292 292 291 291 291 290 289 290 291 291 291 291 291 291 291 292 292 292 292 293 293 294 295 296 297 297 297 297 299 300 301 302 302 301 302 301 301 300 298 295 292 289
294 293 293 292 292 291 290 290 290 291 292 292 292 292 292 292 292 293 293 294 294 294 294 295 296 297 297 297 298 299 301 302 303 303 302 303 303 303 302 300 298 294 289
295 293 292 292 292 291 290 290 290 290 291 292 293 293 293 293 293 294 294 294 295 295 295 295 296 297 298 298 299 300 302 303 306 306 304 305 305 305 304 303 300 296 291
296 294 292 292 291 291 290 291 291 291 292 293 293 293 293 294 294 294 294 295 295 295 295 295 297 298 299 299 301 302 303 304 307 307 306 307 308 308 307 305 302 298 293
295 294 293 292 292 291 291 292 292 292 292 293 293 294 294 293 293 293 294 295 295 295 295 296 298 299 300 300 301 303 304 306 309 310 308 308 310 310 310 308 303 300 295
295 294 293 293 293 293 293 293 293 293 293 293 294 294 294 294 293 293 294 295 295 295 295 296 298 299 300 301 302 304 306 308 310 311 309 308 311 311 312 310 306 302 297